Weather History for Gwinner, ND

Change the Weather History Date:

Saturday, May 18, 2013

  Actual Average (KP67) Record (KP67)
Temperature  
Mean Temperature 70 °F -  
Max Temperature 84 °F 64 °F 82 °F (1998)
Min Temperature 57 °F 46 °F 41 °F (1997)
Cooling Degree Days 6    
Growing Degree Days 20 (Base 50)    
Moisture  
Dew Point 60 °F    
Average Humidity 75    
Maximum Humidity 100    
Minimum Humidity 37    
Precipitation  
Precipitation 0.02 in - - ()
Sea Level Pressure  
Sea Level Pressure 29.79 in    
Wind  
Wind Speed 12 mph (SE)    
Max Wind Speed 20 mph    
Max Gust Speed 23 mph    
Visibility 6 miles    
Events      
Averages and records for this station are not official NWS values.
T = Trace of Precipitation, MM = Missing Value Source: NWS Daily Summary

Daily Weather History Graph

Daily Weather History Graph

Search for Another Location

Airport:

Trip Planner

Search our weather history database for the weather conditions in past years. The results will help you decide how hot, cold, wet, or windy it might be!

Date:

Astronomy

May. 18, 2013 Rise Set
Actual Time 5:54 AM CDT 9:00 PM CDT
Civil Twilight 5:18 AM CDT 9:36 PM CDT
Nautical Twilight 4:32 AM CDT 10:23 PM CDT
Astronomical Twilight 3:35 AM CDT 11:19 PM CDT
Moon 1:42 PM CDT (5/18) 2:11 AM CDT (5/18)
Length of Visible Light 16h 18m
Length of Day
15h 06m
First Quarter, 55% of the Moon is Illuminated
May 18
First Quarter
May 24
Full
May 31
Last Quarter
Jun 8
New
Jun 16
First Quarter

Hourly Weather History & Observations

Time (CDT) Temp. Heat Index Dew Point Humidity Pressure Visibility Wind Dir Wind Speed Gust Speed Precip Events Conditions
12:15 AM 62.6 °F - 60.8 °F 94% 29.83 in 9.0 mi East 17.3 mph - 0.00 in   Overcast
12:35 AM 60.8 °F - 60.8 °F 100% 29.84 in 7.0 mi ESE 17.3 mph - 0.00 in   Overcast
12:55 AM 60.8 °F - 60.8 °F 100% 29.84 in 3.0 mi East 16.1 mph - 0.00 in   Overcast
1:15 AM 59.0 °F - 59.0 °F 100% 29.84 in 2.0 mi East 18.4 mph - 0.00 in   Overcast
1:35 AM 59.0 °F - 59.0 °F 100% 29.84 in 1.5 mi ESE 17.3 mph 23.0 mph 0.00 in   Overcast
1:55 AM 59.0 °F - 59.0 °F 100% 29.85 in 1.0 mi ESE 16.1 mph - 0.00 in   Overcast
2:15 AM 57.2 °F - 57.2 °F 100% 29.85 in 0.8 mi ESE 12.7 mph - 0.00 in   Overcast
2:35 AM 59.0 °F - 59.0 °F 100% 29.86 in 0.8 mi SE 11.5 mph - 0.00 in   Overcast
2:55 AM 59.0 °F - 59.0 °F 100% 29.87 in 1.8 mi ESE 8.1 mph 21.9 mph 0.01 in   Overcast
3:15 AM 59.0 °F - 59.0 °F 100% 29.84 in 3.0 mi SSE 9.2 mph - 0.01 in   Overcast
3:35 AM 59.0 °F - 59.0 °F 100% 29.82 in 2.5 mi South 8.1 mph - 0.01 in   Scattered Clouds
3:55 AM 59.0 °F - 59.0 °F 100% 29.79 in 2.5 mi Calm Calm - 0.01 in   Clear
4:15 AM 59.0 °F - 59.0 °F 100% 29.78 in 1.8 mi East 3.5 mph - 0.00 in   Clear
4:35 AM 59.0 °F - 59.0 °F 100% 29.77 in 1.8 mi NE 9.2 mph - 0.00 in   Clear
4:55 AM 59.0 °F - 59.0 °F 100% 29.81 in 1.8 mi ENE 9.2 mph - 0.00 in   Scattered Clouds
5:15 AM 59.0 °F - 59.0 °F 100% 29.83 in 1.0 mi ENE 11.5 mph - 0.00 in   Overcast
5:35 AM 57.2 °F - 57.2 °F 100% 29.84 in 0.8 mi ENE 12.7 mph - 0.00 in   Overcast
5:55 AM 57.2 °F - 57.2 °F 100% 29.83 in 0.2 mi ENE 17.3 mph - 0.00 in   Overcast
6:15 AM 57.2 °F - 57.2 °F 100% 29.83 in 0.2 mi East 18.4 mph 21.9 mph 0.00 in   Overcast
6:35 AM 57.2 °F - 57.2 °F 100% 29.85 in 1.0 mi ESE 17.3 mph - 0.00 in   Overcast
6:55 AM 57.2 °F - 57.2 °F 100% 29.84 in 1.2 mi ESE 19.6 mph - 0.00 in   Overcast
7:15 AM 57.2 °F - 57.2 °F 100% 29.85 in 1.2 mi ESE 13.8 mph 19.6 mph 0.00 in   Overcast
7:35 AM 59.0 °F - 59.0 °F 100% 29.85 in 1.5 mi ESE 13.8 mph - 0.00 in   Mostly Cloudy
7:55 AM 59.0 °F - 59.0 °F 100% 29.85 in 1.5 mi SE 17.3 mph - 0.00 in   Scattered Clouds
8:15 AM 60.8 °F - 60.8 °F 100% 29.83 in 1.5 mi SE 16.1 mph 23.0 mph 0.00 in   Mostly Cloudy
8:35 AM 60.8 °F - 60.8 °F 100% 29.82 in 1.5 mi SE 15.0 mph 20.7 mph 0.00 in   Mostly Cloudy
8:55 AM 60.8 °F - 60.8 °F 100% 29.84 in 1.8 mi SE 15.0 mph - 0.00 in   Overcast
9:15 AM 62.6 °F - 62.6 °F 100% 29.85 in 2.0 mi SE 10.4 mph - 0.00 in   Mostly Cloudy
9:35 AM 64.4 °F - 64.4 °F 100% 29.84 in 2.5 mi ESE 13.8 mph - 0.00 in   Scattered Clouds
9:55 AM 64.4 °F - 64.4 °F 100% 29.83 in 3.0 mi SE 13.8 mph - 0.00 in   Mostly Cloudy
10:15 AM 66.2 °F - 66.2 °F 100% 29.82 in 4.0 mi SE 13.8 mph - 0.00 in   Scattered Clouds
10:35 AM 69.8 °F - 69.8 °F 100% 29.81 in 5.0 mi SSE 13.8 mph - 0.00 in   Clear
10:55 AM 71.6 °F - 68.0 °F 88% 29.81 in 7.0 mi SE 10.4 mph - 0.00 in   Clear
11:15 AM 71.6 °F - 66.2 °F 83% 29.80 in 9.0 mi SSE 10.4 mph - 0.00 in   Clear
11:35 AM 73.4 °F - 62.6 °F 69% 29.80 in 10.0 mi South 8.1 mph - 0.00 in   Clear
11:55 AM 73.4 °F - 62.6 °F 69% 29.80 in 10.0 mi SW 6.9 mph - 0.00 in   Clear
12:15 PM 73.4 °F - 64.4 °F 73% 29.79 in 9.0 mi SE 4.6 mph - 0.00 in   Clear
12:35 PM 75.2 °F - 62.6 °F 65% 29.79 in 10.0 mi South 5.8 mph - 0.00 in   Clear
12:55 PM 75.2 °F - 62.6 °F 65% 29.79 in 10.0 mi South 6.9 mph - 0.00 in   Clear
1:15 PM 77.0 °F - 62.6 °F 61% 29.79 in 10.0 mi SE 4.6 mph - 0.00 in   Clear
1:35 PM 77.0 °F - 60.8 °F 57% 29.79 in 10.0 mi SW 3.5 mph - 0.00 in   Clear
1:55 PM 78.8 °F - 60.8 °F 54% 29.78 in 10.0 mi ESE 5.8 mph - 0.00 in   Clear
2:15 PM 80.6 °F 81.5 °F 60.8 °F 51% 29.78 in 10.0 mi SW 5.8 mph - 0.00 in   Clear
2:35 PM 80.6 °F 81.1 °F 59.0 °F 48% 29.78 in 10.0 mi WSW 8.1 mph - 0.00 in   Clear
2:55 PM 80.6 °F 81.1 °F 59.0 °F 48% 29.78 in 10.0 mi South 5.8 mph - 0.00 in   Partly Cloudy
3:15 PM 80.6 °F 80.8 °F 57.2 °F 45% 29.77 in 10.0 mi WSW 5.8 mph - 0.00 in   Clear
3:35 PM 82.4 °F 82.0 °F 57.2 °F 42% 29.77 in 10.0 mi ESE 3.5 mph - 0.00 in   Clear
3:55 PM 82.4 °F 81.7 °F 55.4 °F 39% 29.77 in 10.0 mi SW 9.2 mph - 0.00 in   Clear
4:15 PM 84.2 °F 83.0 °F 55.4 °F 37% 29.77 in 10.0 mi South 3.5 mph - 0.00 in   Clear
4:35 PM 82.4 °F 81.7 °F 55.4 °F 39% 29.77 in 10.0 mi Calm Calm - 0.00 in   Clear
4:55 PM 84.2 °F 83.5 °F 57.2 °F 40% 29.77 in 10.0 mi SSE 6.9 mph - 0.00 in   Scattered Clouds
5:15 PM 84.2 °F 83.5 °F 57.2 °F 40% 29.76 in 10.0 mi SSE 10.4 mph - 0.00 in   Partly Cloudy
5:35 PM 82.4 °F 82.0 °F 57.2 °F 42% 29.77 in 10.0 mi SE 8.1 mph - 0.00 in   Scattered Clouds
5:55 PM 82.4 °F 82.0 °F 57.2 °F 42% 29.76 in 10.0 mi SSE 5.8 mph - 0.00 in   Mostly Cloudy
6:15 PM 82.4 °F 81.7 °F 55.4 °F 39% 29.76 in 10.0 mi South 5.8 mph - 0.00 in   Mostly Cloudy
6:35 PM 82.4 °F 81.7 °F 55.4 °F 39% 29.75 in 10.0 mi South 5.8 mph - 0.00 in   Scattered Clouds
6:55 PM 80.6 °F 80.8 °F 57.2 °F 45% 29.75 in 10.0 mi SSE 6.9 mph - 0.00 in   Scattered Clouds
7:15 PM 80.6 °F 80.8 °F 57.2 °F 45% 29.74 in 10.0 mi SE 9.2 mph - 0.00 in   Scattered Clouds
7:35 PM 80.6 °F 80.8 °F 57.2 °F 45% 29.74 in 10.0 mi SSE 6.9 mph - 0.00 in   Partly Cloudy
7:55 PM 80.6 °F 80.8 °F 57.2 °F 45% 29.73 in 10.0 mi South 5.8 mph - 0.00 in   Clear
8:15 PM 78.8 °F - 57.2 °F 47% 29.73 in 10.0 mi SSE 8.1 mph - 0.00 in   Clear
8:35 PM 75.2 °F - 57.2 °F 53% 29.72 in 10.0 mi SSE 5.8 mph - 0.00 in   Clear
8:55 PM 75.2 °F - 59.0 °F 57% 29.72 in 10.0 mi SSE 3.5 mph - 0.00 in   Clear
9:15 PM 73.4 °F - 57.2 °F 57% 29.73 in 10.0 mi ESE 4.6 mph - 0.00 in   Clear
9:35 PM 71.6 °F - 57.2 °F 60% 29.72 in 10.0 mi East 4.6 mph - 0.00 in   Mostly Cloudy
9:55 PM 71.6 °F - 57.2 °F 60% 29.72 in 10.0 mi ENE 6.9 mph - 0.00 in   Mostly Cloudy
10:15 PM 69.8 °F - 57.2 °F 64% 29.72 in 10.0 mi NE 5.8 mph - 0.00 in   Mostly Cloudy
10:35 PM 71.6 °F - 57.2 °F 60% 29.74 in 10.0 mi North 6.9 mph - 0.00 in   Mostly Cloudy
10:55 PM 71.6 °F - 60.8 °F 69% 29.75 in 10.0 mi North 9.2 mph - 0.00 in   Mostly Cloudy
11:15 PM 71.6 °F - 62.6 °F 73% 29.73 in 9.0 mi North 11.5 mph - 0.00 in   Scattered Clouds
11:35 PM 69.8 °F - 64.4 °F 83% 29.71 in 7.0 mi North 9.2 mph - 0.00 in   Partly Cloudy
11:55 PM 68.0 °F - 64.4 °F 88% 29.71 in 9.0 mi East 6.9 mph - 0.00 in   Scattered Clouds